Content
SEND FEEDBACK

Daily
Averages
Monthly
Summary
United States of America

PLAIN DEALING, LOUISIANA


Home > North America > United States > Louisiana
Elevation: 291 feet     Latitude: 32 54N     Longitude: 093 41W

WEATHER
 
SELECT A DAY
Number of Records: 185,433;   Date Range: 1/1/95 - 10/21/14
 
SHARE

PRINT THIS DATA

[ ← Previous Day ]
WEATHER ALMANAC - JANUARY 23, 2013
[ Next Day → ]
[ °C ]   °F
Weather ElementAverageHighLow
Temperature55.2 °F72 °F (2:53 pm)37.9 °F (6:53 am)
Dewpoint44.8 °F52 °F (10:53 am)35.1 °F (1:53 am)
Humidity69.9 %89 % (6:53 am)47 % (1:53 pm)
Barometer30.26 in30.32 in (6:53 am)30.19 in (5:53 pm)
Wind Speed6.1 mph16.1 mph (12:53 pm)
Wind Gust19.6 mph (1:53 pm)
Weather ElementAverage
Visibility10 mi
Wind DirectionSE (134.1 °)

Weather ElementTotal
Precipitation---
Heating Degree Days10.1 (Base 65)
Growing Degree Days5 (Base 50)
Averaged from 22 records on January 23, 2013
WEATHER CONDITIONS BREAKOUT
WIND DIRECTION BREAKOUT
WEATHER BY HOUR - JANUARY 23, 2013
[ °C ]   °F
Local TimeTemperatureDewpointHumidityBarometerVisibilityWind DirectionWind SpeedGust SpeedPrecipitationEventsConditions
1:53 AM41.0 °F35.1 °F79 %30.28 in10.0 miCalmClear
2:53 AM42.1 °F36.0 °F79 %30.27 in10.0 miSE (140°)3.5 mphClear
3:53 AM41.0 °F36.0 °F82 %30.27 in10.0 miCalmClear
4:53 AM42.1 °F37.0 °F82 %30.30 in10.0 miCalmOvercast
5:53 AM39.9 °F36.0 °F86 %30.31 in10.0 miCalmScattered Clouds
6:53 AM37.9 °F35.1 °F89 %30.32 in10.0 miCalmScattered Clouds
7:53 AM43.0 °F39.0 °F86 %30.32 in10.0 miCalmMostly Cloudy
8:53 AM46.9 °F43.0 °F86 %30.32 in10.0 miSSE (150°)4.6 mphMostly Cloudy
9:53 AM55.9 °F48.9 °F77 %30.32 in10.0 miSSW (200°)8.1 mphPartly Cloudy
10:53 AM62.1 °F52.0 °F70 %30.32 in10.0 miSSW (210°)10.4 mphClear
11:53 AM66.0 °F51.1 °F59 %30.30 in10.0 miSW (230°)10.4 mphPartly Cloudy
12:53 PM69.1 °F48.9 °F49 %30.25 in10.0 miSSW (210°)16.1 mphPartly Cloudy
1:53 PM71.1 °F50.0 °F47 %30.22 in10.0 miSSW (210°)13.8 mph19.6 mphClear
2:53 PM72.0 °F51.1 °F48 %30.21 in10.0 miSSW (200°)10.4 mphClear
4:53 PM69.1 °F48.0 °F47 %30.20 in10.0 miSW (220°)10.4 mphClear
5:53 PM66.0 °F48.0 °F52 %30.19 in10.0 miSouth (190°)8.1 mphClear
6:53 PM59.0 °F46.0 °F62 %30.20 in10.0 miSSE (150°)5.8 mphClear
7:53 PM59.0 °F46.0 °F62 %30.20 in10.0 miSSE (160°)8.1 mphClear
8:53 PM57.9 °F48.0 °F70 %30.21 in10.0 miSouth (190°)6.9 mphClear
9:53 PM57.9 °F48.9 °F72 %30.22 in10.0 miSouth (170°)5.8 mphClear
10:53 PM59.0 °F50.0 °F72 %30.22 in10.0 miSouth (170°)6.9 mphClear
11:53 PM57.0 °F51.1 °F81 %30.23 in10.0 miSSE (150°)4.6 mphClear
Hourly data recorded from KDTN, located miles away from Plain Dealing, Louisiana







STORIES FROM OUR PARTNERS